EW9439 Weather Reports


time (UTC)temp
F
wind
direction
speed
knots
gust
knots
rain 1hr
in
rain 24hr
in
rain mn
in
humidity
%
barometer
mb
20260905154512 90 317 0.0 0.0 0.00 0.00 0.00 69 1010.1
20260905153016 89 317 0.0 0.0 0.00 0.00 0.00 70 1010.2
20260905151518 88 317 0.0 0.0 0.00 0.00 0.00 72 1010.4
20260905150013 88 315 0.0 0.0 0.00 0.00 0.00 72 1010.3
20260905144522 86 314 0.0 0.0 0.00 0.00 0.00 74 1010.3
20260905143015 85 314 0.0 0.0 0.00 0.00 0.00 76 1010.4
20260905141515 84 314 0.0 0.0 0.00 0.00 0.00 78 1010.5
20260905140017 83 314 0.0 0.0 0.00 0.00 0.00 81 1010.6
20260905134519 83 314 0.0 0.0 0.00 0.00 0.00 83 1010.6
20260905133032 81 314 0.0 0.0 0.00 0.00 0.00 88 1010.8
20260905131527 78 314 0.0 0.0 0.00 0.00 0.00 92 1010.9
20260905130023 76 314 0.0 0.0 0.00 0.00 0.00 96 1011.0
20260905124527 74 314 0.0 0.0 0.00 0.00 0.00 98 1010.9
20260905123035 73 314 0.0 0.0 0.00 0.00 0.00 97 1010.9
20260905121542 72 314 0.0 0.0 0.00 0.00 0.00 96 1010.8
20260905120037 72 314 0.0 0.0 0.00 0.01 0.00 96 1010.7
20260905114539 72 313 0.0 0.0 0.00 0.01 0.00 96 1010.5
20260905113041 72 313 0.0 0.0 0.00 0.01 0.00 96 1010.4
20260905111549 72 313 0.0 0.0 0.00 0.01 0.00 96 1010.2
20260905110053 72 313 0.0 0.0 0.00 0.01 0.00 96 1010.1
20260905104552 72 313 0.0 0.0 0.00 0.01 0.00 95 1010.0
20260905103058 73 313 0.0 0.0 0.00 0.01 0.00 95 1010.1
20260905101601 73 313 0.0 0.0 0.00 0.01 0.00 95 1009.9
20260905100120 73 313 0.0 0.0 0.00 0.01 0.00 95 1010.0
20260905094559 73 313 0.0 0.0 0.00 0.01 0.00 95 1009.8
20260905094501 73 313 0.0 0.0 0.00 0.01 0.00 95 1009.8
20260905093004 73 313 0.0 0.0 0.00 0.01 0.00 95 1009.6
20260905091510 73 313 0.0 0.0 0.00 0.01 0.00 95 1009.6
20260905090010 74 313 0.0 0.0 0.00 0.01 0.00 95 1009.7
20260905084510 74 313 0.0 0.0 0.00 0.01 0.00 95 1009.7
20260905083016 74 313 0.0 0.0 0.00 0.01 0.00 95 1009.6
20260905081518 74 313 0.0 0.0 0.00 0.01 0.00 95 1009.7
20260905080022 74 313 0.0 0.0 0.00 0.01 0.00 94 1009.7
20260905074524 74 313 0.0 0.0 0.00 0.01 0.00 94 1009.6
20260905073021 74 313 0.0 0.0 0.00 0.01 0.00 94 1009.6
20260905071524 75 313 0.0 0.0 0.00 0.01 0.00 94 1009.6
20260905070024 75 313 0.0 0.0 0.00 0.01 0.00 94 1009.6
20260905064526 75 313 0.0 0.0 0.00 0.01 0.00 93 1009.5
20260905063034 75 313 0.0 0.0 0.00 0.01 0.00 94 1009.4
20260905061544 75 313 0.0 0.0 0.00 0.01 0.00 93 1009.4
20260905060045 76 313 0.0 0.0 0.00 0.01 0.00 93 1009.7
20260905054612 76 313 0.0 0.0 0.00 0.01 0.00 92 1009.9
20260905053043 76 313 0.0 0.0 0.00 0.01 0.00 92 1010.1
20260905051549 76 313 0.0 0.0 0.00 0.01 0.00 92 1010.2
20260905050051 76 313 0.0 0.0 0.00 0.01 0.00 91 1010.3
20260905044533 76 313 0.0 0.0 0.00 0.01 0.00 91 1010.4
20260905043036 77 313 0.0 0.0 0.00 0.01 0.00 90 1010.3
20260905041539 77 313 0.0 0.0 0.00 0.01 0.00 90 1010.4
20260905040043 77 313 0.0 0.0 0.00 0.01 0.01 89 1010.5
20260905034537 77 313 0.0 0.0 0.00 0.01 0.01 89 1010.5
20260905033041 78 313 0.0 0.0 0.00 0.01 0.01 88 1010.7
20260905031523 78 313 0.0 0.0 0.00 0.01 0.01 88 1010.9
20260905030032 78 313 0.0 0.0 0.00 0.01 0.01 87 1011.0
20260905024527 79 313 0.0 0.0 0.00 0.01 0.01 85 1011.0
20260905023031 79 313 0.0 0.0 0.00 0.01 0.01 85 1011.1
20260905021533 80 313 0.0 0.0 0.00 0.01 0.01 84 1011.1
20260905020040 80 313 0.0 0.0 0.00 0.01 0.01 83 1010.9
20260905014541 80 313 0.0 0.0 0.00 0.01 0.01 82 1010.9
20260905013045 81 313 0.0 0.0 0.00 0.01 0.01 81 1010.8
20260905011544 81 313 0.0 0.0 0.00 0.01 0.01 79 1010.7
20260905010049 82 313 0.0 0.0 0.00 0.01 0.01 78 1010.6
20260905004552 83 313 0.0 0.0 0.00 0.01 0.01 77 1010.5
20260905003055 83 313 0.0 0.0 0.00 0.01 0.01 74 1010.5
20260905001555 84 313 0.0 0.0 0.00 0.01 0.01 74 1010.4
20260905000057 85 313 0.0 0.0 0.00 0.13 0.01 72 1010.2
20260904234504 86 313 0.0 0.0 0.00 0.13 0.01 69 1010.1
20260904233012 87 313 0.0 0.0 0.00 0.13 0.01 67 1010.0
20260904231515 88 313 0.0 0.0 0.00 0.13 0.01 66 1010.0
20260904230018 90 313 0.0 0.0 0.00 0.31 0.01 62 1009.8
20260904224516 91 311 0.0 0.0 0.00 0.31 0.01 59 1009.8
20260904223015 91 311 0.0 0.0 0.00 0.31 0.01 55 1009.8
20260904221518 92 155 0.0 0.0 0.00 0.31 0.01 56 1009.6
20260904220020 92 266 0.0 0.0 0.00 0.31 0.01 55 1009.7
20260904214525 92 223 0.0 0.0 0.00 0.31 0.01 57 1009.8
20260904213028 92 313 0.0 0.0 0.00 0.31 0.01 56 1009.9
20260904211512 92 305 0.0 0.0 0.00 0.31 0.01 57 1009.9
20260904210016 92 193 0.0 0.0 0.00 0.31 0.01 58 1010.0
20260904204516 92 287 0.0 0.9 0.00 0.31 0.01 57 1010.2
20260904203059 92 317 0.0 0.0 0.00 0.31 0.01 57 1010.3
20260904201557 92 340 0.0 0.0 0.00 0.31 0.01 57 1010.4
20260904200114 92 346 0.0 0.0 0.00 0.31 0.01 58 1010.6
20260904194504 92 209 0.0 1.7 0.00 0.31 0.01 57 1010.8
20260904193004 92 234 0.0 0.0 0.00 0.31 0.01 59 1011.2
20260904191503 92 38 0.0 0.0 0.00 0.31 0.01 61 1011.4
20260904190004 92 216 0.0 0.0 0.00 0.31 0.01 59 1011.8
20260904184506 92 355 0.0 0.0 0.00 0.31 0.01 60 1012.0
20260904183008 92 355 0.0 1.7 0.00 0.31 0.01 64 1012.2
20260904181510 91 158 0.0 3.5 0.00 0.31 0.01 64 1012.4
20260904180013 90 324 0.0 0.0 0.00 0.31 0.01 67 1012.6
20260904174515 91 188 0.0 0.0 0.00 0.31 0.01 66 1012.6
20260904173014 90 191 0.0 0.0 0.00 0.31 0.01 66 1012.8
20260904171511 90 155 0.0 0.0 0.00 0.31 0.01 69 1013.0
20260904170012 89 15 0.0 0.0 0.00 0.31 0.01 69 1013.2
20260904164512 89 15 0.0 0.0 0.00 0.31 0.01 72 1013.4
20260904163019 89 5 0.0 0.0 0.00 0.31 0.01 69 1013.5
20260904161519 88 51 0.0 0.0 0.00 0.31 0.01 72 1013.6
20260904160021 86 355 0.0 0.0 0.00 0.31 0.01 75 1013.7